,,,PA_Meas_PMT16A,,PR_Meas_QMR101_102,,RH_Meas_QMH101,,SR_Meas_QMS101,,TA_Meas_QMH101,,GenWind,,GenWind,
date,time,status,PA,status,PR,status,RH,status,SR,status,TA,status,DirAvg,status,SpdAvg,
2011-06-03, 00:00:04,VALID,1001.22,VALID,0,VALID,91.8988,VALID,0,VALID,24.0543,VALID,69,VALID,1.43438,
2011-06-03, 00:01:04,VALID,1001.24,VALID,0,VALID,91.9369,VALID,0,VALID,24.0116,VALID,93,VALID,1.25039,
2011-06-03, 00:02:04,VALID,1001.22,VALID,0,VALID,91.9674,VALID,0,VALID,24.0329,VALID,93,VALID,1.11797,
2011-06-03, 00:03:04,VALID,1001.22,VALID,0,VALID,91.9903,VALID,0,VALID,24.0329,VALID,78,VALID,1.33711,
2011-06-03, 00:04:04,VALID,1001.21,VALID,0,VALID,92.0132,VALID,0,VALID,24.0116,VALID,77,VALID,1.08594,
2011-06-03, 00:05:04,VALID,1001.2,VALID,0,VALID,91.998,VALID,0,VALID,24.0134,VALID,77,VALID,1.09219,
2011-06-03, 00:06:04,VALID,1001.21,VALID,0,VALID,91.9903,VALID,0,VALID,24.0329,VALID,77,VALID,0.978906,
2011-06-03, 00:07:04,VALID,1001.17,VALID,0,VALID,91.9751,VALID,0,VALID,24.0329,VALID,77,VALID,0.785156,
2011-06-03, 00:08:04,VALID,1001.15,VALID,0,VALID,91.9369,VALID,0,VALID,24.0134,VALID,81,VALID,0.581641,
2011-06-03, 00:09:04,VALID,1001.12,VALID,0,VALID,91.914,VALID,0,VALID,23.9921,VALID,81,VALID,0.615625,
2011-06-03, 00:10:04,VALID,1001.13,VALID,0,VALID,91.9064,VALID,0,VALID,24.0348,VALID,81,VALID,0.550781,
2011-06-03, 00:11:04,VALID,1001.14,VALID,0,VALID,91.8759,VALID,0,VALID,23.9726,VALID,86,VALID,0.380859,
2011-06-03, 00:12:04,VALID,1001.14,VALID,0,VALID,91.8835,VALID,0,VALID,23.9939,VALID,105,VALID,0.850391,
2011-06-03, 00:13:04,VALID,1001.12,VALID,0,VALID,91.853,VALID,0,VALID,24.0329,VALID,114,VALID,0.703125,
2011-06-03, 00:14:04,VALID,1001.13,VALID,0,VALID,91.8377,VALID,0,VALID,24.0329,VALID,114,VALID,0.689453,
2011-06-03, 00:15:04,VALID,1001.13,VALID,0,VALID,91.8377,VALID,0,VALID,24.0329,VALID,116,VALID,0.630469,
2011-06-03, 00:16:04,VALID,1001.1,VALID,0,VALID,91.8377,VALID,0,VALID,24.0329,VALID,101,VALID,0.640625,
2011-06-03, 00:17:04,VALID,1001.11,VALID,0,VALID,91.8072,VALID,0,VALID,24.0525,VALID,125,VALID,0.966406,
2011-06-03, 00:18:04,VALID,1001.11,VALID,0,VALID,91.7385,VALID,0,VALID,24.0525,VALID,114,VALID,0.629687,
2011-06-03, 00:19:04,VALID,1001.11,VALID,0,VALID,91.647,VALID,0,VALID,24.072,VALID,117,VALID,0.987891,
2011-06-03, 00:20:04,VALID,1001.1,VALID,0,VALID,91.5478,VALID,0,VALID,24.072,VALID,119,VALID,0.989062,
2011-06-03, 00:21:04,VALID,1001.1,VALID,0,VALID,91.3876,VALID,0,VALID,24.0506,VALID,108,VALID,0.846484,
2011-06-03, 00:22:04,VALID,1001.11,VALID,0,VALID,91.2045,VALID,0,VALID,24.072,VALID,120,VALID,1.05078,
2011-06-03, 00:23:04,VALID,1001.07,VALID,0,VALID,91.0061,VALID,0,VALID,24.0915,VALID,121,VALID,0.798828,
2011-06-03, 00:24:04,VALID,1001.06,VALID,0,VALID,90.8154,VALID,0,VALID,24.072,VALID,123,VALID,0.539844,
2011-06-03, 00:25:04,VALID,1001.08,VALID,0,VALID,90.678,VALID,0,VALID,24.0915,VALID,123,VALID,0.738672,
2011-06-03, 00:26:04,VALID,1001.07,VALID,0,VALID,90.5407,VALID,0,VALID,24.072,VALID,123,VALID,0.561719,
2011-06-03, 00:27:04,VALID,1001.04,VALID,0,VALID,90.3881,VALID,0,VALID,24.072,VALID,123,VALID,0.505469,
2011-06-03, 00:28:04,VALID,1001.02,VALID,0,VALID,90.3652,VALID,0,VALID,24.072,VALID,123,VALID,0.171875,
2011-06-03, 00:29:04,VALID,1001.02,VALID,0,VALID,90.3728,VALID,0,VALID,24.072,VALID,123,VALID,0.279687,
2011-06-03, 00:30:04,VALID,1001.01,VALID,0,VALID,90.5102,VALID,0,VALID,24.072,VALID,84,VALID,0.589844,
2011-06-03, 00:31:04,VALID,1001,VALID,0,VALID,90.7085,VALID,0,VALID,24.0915,VALID,3,VALID,0.49375,
2011-06-03, 00:32:04,VALID,1000.99,VALID,0,VALID,90.9069,VALID,0,VALID,24.072,VALID,3,VALID,0.515625,
2011-06-03, 00:33:04,VALID,1000.96,VALID,0,VALID,91.0443,VALID,0,VALID,24.072,VALID,3,VALID,0.464844,
2011-06-03, 00:34:04,VALID,1000.99,VALID,0,VALID,91.1587,VALID,0,VALID,24.0525,VALID,3,VALID,0.165625,
2011-06-03, 00:35:04,VALID,1000.95,VALID,0,VALID,91.2503,VALID,0,VALID,24.0329,VALID,3,VALID,0.113672,
2011-06-03, 00:36:04,VALID,1000.9,VALID,0,VALID,91.3418,VALID,0,VALID,24.0329,VALID,3,VALID,0.0109375,
2011-06-03, 00:37:04,VALID,1000.89,VALID,0,VALID,91.4257,VALID,0,VALID,24.0134,VALID,33,VALID,0.435547,
2011-06-03, 00:38:04,VALID,1000.89,VALID,0,VALID,91.502,VALID,0,VALID,24.0134,VALID,33,VALID,0,
2011-06-03, 00:39:04,VALID,1000.9,VALID,0,VALID,91.5249,VALID,0,VALID,23.9939,VALID,33,VALID,0,
2011-06-03, 00:40:04,VALID,1000.88,VALID,0,VALID,91.5783,VALID,0,VALID,23.9549,VALID,33,VALID,0,
2011-06-03, 00:41:04,VALID,1000.88,VALID,0,VALID,91.6012,VALID,0,VALID,23.9549,VALID,33,VALID,0,
2011-06-03, 00:42:04,VALID,1000.83,VALID,0,VALID,91.6088,VALID,0,VALID,23.9159,VALID,33,VALID,0,
2011-06-03, 00:43:04,VALID,1000.83,VALID,0,VALID,91.6317,VALID,0,VALID,23.9159,VALID,33,VALID,0,
2011-06-03, 00:44:04,VALID,1000.87,VALID,0,VALID,91.7004,VALID,0,VALID,23.9159,VALID,33,VALID,0,
2011-06-03, 00:45:04,VALID,1000.85,VALID,0,VALID,91.792,VALID,0,VALID,23.8963,VALID,33,VALID,0,
2011-06-03, 00:46:04,VALID,1000.86,VALID,0,VALID,91.8148,VALID,0,VALID,23.8963,VALID,92,VALID,0.83125,
2011-06-03, 00:47:04,VALID,1000.84,VALID,0,VALID,91.8377,VALID,0,VALID,23.9159,VALID,107,VALID,1.09297,
2011-06-03, 00:48:04,VALID,1000.83,VALID,0,VALID,91.792,VALID,0,VALID,23.9159,VALID,107,VALID,1.02852,
2011-06-03, 00:49:04,VALID,1000.79,VALID,0,VALID,91.7385,VALID,0,VALID,23.9159,VALID,103,VALID,1.18672,
2011-06-03, 00:50:04,VALID,1000.81,VALID,0,VALID,91.6623,VALID,0,VALID,23.9159,VALID,101,VALID,1.24102,
2011-06-03, 00:51:04,VALID,1000.82,VALID,0,VALID,91.6012,VALID,0,VALID,23.9159,VALID,101,VALID,1.18711,
2011-06-03, 00:52:04,VALID,1000.85,VALID,0,VALID,91.5478,VALID,0,VALID,23.9159,VALID,102,VALID,0.900391,
2011-06-03, 00:53:04,VALID,1000.82,VALID,0,VALID,91.502,VALID,0,VALID,23.9159,VALID,102,VALID,0.96875,
2011-06-03, 00:54:04,VALID,1000.83,VALID,0,VALID,91.4944,VALID,0,VALID,23.8963,VALID,102,VALID,0.971875,
2011-06-03, 00:55:04,VALID,1000.83,VALID,0,VALID,91.4868,VALID,0,VALID,23.9159,VALID,102,VALID,0.934375,
2011-06-03, 00:56:04,VALID,1000.79,VALID,0,VALID,91.4486,VALID,0,VALID,23.8768,VALID,102,VALID,0.855078,
2011-06-03, 00:57:04,VALID,1000.8,VALID,0,VALID,91.4028,VALID,0,VALID,23.8768,VALID,102,VALID,0.759766,
2011-06-03, 00:58:04,VALID,1000.78,VALID,0,VALID,91.3876,VALID,0,VALID,23.8768,VALID,102,VALID,0.783594,
2011-06-03, 00:59:04,VALID,1000.74,VALID,0,VALID,91.3571,VALID,0,VALID,23.8555,VALID,102,VALID,0.701563,
2011-06-03, 01:00:04,VALID,1000.76,VALID,0,VALID,91.3342,VALID,0,VALID,23.8555,VALID,102,VALID,0.515234,
2011-06-03, 01:01:04,VALID,1000.77,VALID,0,VALID,91.3342,VALID,0,VALID,23.8573,VALID,102,VALID,0.44375,
2011-06-03, 01:02:04,VALID,1000.79,VALID,0,VALID,91.3571,VALID,0,VALID,23.8768,VALID,102,VALID,0.39375,
2011-06-03, 01:03:04,VALID,1000.73,VALID,0,VALID,91.3723,VALID,0,VALID,23.8768,VALID,102,VALID,0.328906,
2011-06-03, 01:04:04,VALID,1000.74,VALID,0,VALID,91.4028,VALID,0,VALID,23.8963,VALID,102,VALID,0.384766,
2011-06-03, 01:05:04,VALID,1000.76,VALID,0,VALID,91.4105,VALID,0,VALID,23.9159,VALID,102,VALID,0.494141,
2011-06-03, 01:06:04,VALID,1000.76,VALID,0,VALID,91.4486,VALID,0,VALID,23.9159,VALID,102,VALID,0.589844,
2011-06-03, 01:07:04,VALID,1000.76,VALID,0,VALID,91.4181,VALID,0,VALID,23.9549,VALID,102,VALID,0.4625,
2011-06-03, 01:08:04,VALID,1000.77,VALID,0,VALID,91.296,VALID,0,VALID,23.9549,VALID,102,VALID,0.448047,
2011-06-03, 01:09:04,VALID,1000.74,VALID,0,VALID,91.1434,VALID,0,VALID,23.9549,VALID,102,VALID,0.58125,
2011-06-03, 01:10:04,VALID,1000.77,VALID,0,VALID,91.0137,VALID,0,VALID,23.9726,VALID,102,VALID,0.470313,
2011-06-03, 01:11:04,VALID,1000.74,VALID,0,VALID,90.8154,VALID,0,VALID,24.0134,VALID,102,VALID,0.223828,
2011-06-03, 01:12:04,VALID,1000.74,VALID,0,VALID,90.6017,VALID,0,VALID,24.0134,VALID,102,VALID,0,
2011-06-03, 01:13:04,VALID,1000.7,VALID,0,VALID,90.4415,VALID,0,VALID,23.9939,VALID,102,VALID,0,
2011-06-03, 01:14:04,VALID,1000.74,VALID,0,VALID,90.3805,VALID,0,VALID,23.9939,VALID,102,VALID,0.298828,
2011-06-03, 01:15:04,VALID,1000.71,VALID,0,VALID,90.3652,VALID,0,VALID,23.9744,VALID,102,VALID,0.229297,
2011-06-03, 01:16:04,VALID,1000.74,VALID,0,VALID,90.3118,VALID,0,VALID,23.914,VALID,102,VALID,0.262891,
2011-06-03, 01:17:04,VALID,1000.76,VALID,0,VALID,90.2813,VALID,0,VALID,23.8963,VALID,102,VALID,0,
2011-06-03, 01:18:04,VALID,1000.77,VALID,0,VALID,90.2737,VALID,0,VALID,23.8768,VALID,102,VALID,0,
2011-06-03, 01:19:04,VALID,1000.76,VALID,0,VALID,90.3118,VALID,0,VALID,23.8165,VALID,102,VALID,0,
2011-06-03, 01:20:04,VALID,1000.74,VALID,0,VALID,90.4415,VALID,0,VALID,23.8183,VALID,102,VALID,0.192578,
2011-06-03, 01:21:04,VALID,1000.72,VALID,0,VALID,90.617,VALID,0,VALID,23.8183,VALID,102,VALID,0.519141,
2011-06-03, 01:22:04,VALID,1000.7,VALID,0,VALID,90.762,VALID,0,VALID,23.8183,VALID,12,VALID,0.809766,
2011-06-03, 01:23:04,VALID,1000.7,VALID,0,VALID,90.8077,VALID,0,VALID,23.7988,VALID,7,VALID,0.584375,
2011-06-03, 01:24:04,VALID,1000.72,VALID,0,VALID,90.8535,VALID,0,VALID,23.7579,VALID,7,VALID,0.426953,
2011-06-03, 01:25:04,VALID,1000.72,VALID,0,VALID,90.9756,VALID,0,VALID,23.7597,VALID,7,VALID,0.414063,
2011-06-03, 01:26:04,VALID,1000.71,VALID,0,VALID,91.0824,VALID,0,VALID,23.7597,VALID,7,VALID,0.439453,
2011-06-03, 01:27:04,VALID,1000.7,VALID,0,VALID,91.174,VALID,0,VALID,23.7597,VALID,355,VALID,0.742969,
2011-06-03, 01:28:04,VALID,1000.73,VALID,0,VALID,91.2655,VALID,0,VALID,23.7597,VALID,355,VALID,0.748047,
2011-06-03, 01:29:04,VALID,1000.72,VALID,0,VALID,91.2579,VALID,0,VALID,23.7384,VALID,355,VALID,0.603906,
2011-06-03, 01:30:04,VALID,1000.7,VALID,0,VALID,91.1892,VALID,0,VALID,23.7402,VALID,355,VALID,0.344531,
2011-06-03, 01:31:04,VALID,1000.7,VALID,0,VALID,91.09,VALID,0,VALID,23.7207,VALID,11,VALID,0.773828,
2011-06-03, 01:32:04,VALID,1000.7,VALID,0,VALID,91.1053,VALID,0,VALID,23.6799,VALID,11,VALID,0.767969,
2011-06-03, 01:33:04,VALID,1000.66,VALID,0,VALID,91.0977,VALID,0,VALID,23.6604,VALID,11,VALID,0.778516,
2011-06-03, 01:34:04,VALID,1000.67,VALID,0,VALID,91.0824,VALID,0,VALID,23.6622,VALID,358,VALID,0.623828,
2011-06-03, 01:35:04,VALID,1000.69,VALID,0,VALID,91.174,VALID,0,VALID,23.6427,VALID,358,VALID,0.346094,
2011-06-03, 01:36:04,VALID,1000.7,VALID,0,VALID,91.2808,VALID,0,VALID,23.6019,VALID,358,VALID,0.342969,
2011-06-03, 01:37:04,VALID,1000.65,VALID,0,VALID,91.4028,VALID,0,VALID,23.6019,VALID,358,VALID,0,
2011-06-03, 01:38:04,VALID,1000.64,VALID,0,VALID,91.4944,VALID,0,VALID,23.6232,VALID,358,VALID,1.00586,
2011-06-03, 01:39:04,VALID,1000.68,VALID,0,VALID,91.586,VALID,0,VALID,23.6214,VALID,358,VALID,0.985156,
2011-06-03, 01:40:04,VALID,1000.71,VALID,0,VALID,91.5478,VALID,0,VALID,23.5841,VALID,187,VALID,0.88125,
2011-06-03, 01:41:04,VALID,1000.68,VALID,0,VALID,91.6088,VALID,0,VALID,23.5823,VALID,186,VALID,0.352344,
2011-06-03, 01:42:04,VALID,1000.65,VALID,0,VALID,91.6241,VALID,0,VALID,23.6036,VALID,186,VALID,0.673047,
2011-06-03, 01:43:04,VALID,1000.61,VALID,0,VALID,91.6012,VALID,0,VALID,23.5841,VALID,355,VALID,1.18867,
2011-06-03, 01:44:04,VALID,1000.64,VALID,0,VALID,91.6317,VALID,0,VALID,23.5823,VALID,311,VALID,0.731641,
2011-06-03, 01:45:04,VALID,1000.71,VALID,0,VALID,91.7157,VALID,0,VALID,23.6036,VALID,234,VALID,0.596484,
2011-06-03, 01:46:04,VALID,1000.65,VALID,0,VALID,91.7004,VALID,0,VALID,23.5628,VALID,231,VALID,0.205469,
2011-06-03, 01:47:04,VALID,1000.63,VALID,0,VALID,91.7309,VALID,0,VALID,23.6036,VALID,250,VALID,0.525781,
2011-06-03, 01:48:04,VALID,1000.63,VALID,0,VALID,91.7767,VALID,0,VALID,23.6036,VALID,354,VALID,1.01797,
2011-06-03, 01:49:04,VALID,1000.63,VALID,0,VALID,91.7614,VALID,0,VALID,23.6036,VALID,3,VALID,0.846484,
2011-06-03, 01:50:04,VALID,1000.65,VALID,0,VALID,91.7767,VALID,0,VALID,23.5628,VALID,3,VALID,0.737891,
2011-06-03, 01:51:04,VALID,1000.68,VALID,0,VALID,91.7614,VALID,0,VALID,23.5043,VALID,3,VALID,0.386719,
2011-06-03, 01:52:04,VALID,1000.68,VALID,0,VALID,91.8148,VALID,0,VALID,23.5043,VALID,322,VALID,0.4375,
2011-06-03, 01:53:04,VALID,1000.67,VALID,0,VALID,91.914,VALID,0,VALID,23.5043,VALID,291,VALID,0.611719,
2011-06-03, 01:54:04,VALID,1000.68,VALID,0,VALID,91.9751,VALID,0,VALID,23.5238,VALID,289,VALID,0,
2011-06-03, 01:55:04,VALID,1000.66,VALID,0,VALID,92.0361,VALID,0,VALID,23.5238,VALID,289,VALID,0.169141,
2011-06-03, 01:56:04,VALID,1000.61,VALID,0,VALID,92.0514,VALID,0,VALID,23.5451,VALID,19,VALID,1.0875,
2011-06-03, 01:57:04,VALID,1000.64,VALID,0,VALID,92.0056,VALID,0,VALID,23.5043,VALID,26,VALID,0.99375,
2011-06-03, 01:58:04,VALID,1000.65,VALID,0,VALID,91.8759,VALID,0,VALID,23.4866,VALID,27,VALID,0.0957031,
2011-06-03, 01:59:04,VALID,1000.64,VALID,0,VALID,91.7385,VALID,0,VALID,23.4475,VALID,27,VALID,0,
2011-06-03, 02:00:04,VALID,1000.67,VALID,0,VALID,91.5631,VALID,0,VALID,23.4067,VALID,27,VALID,0,
2011-06-03, 02:01:04,VALID,1000.65,VALID,0,VALID,91.5478,VALID,0,VALID,23.389,VALID,27,VALID,0,
2011-06-03, 02:02:04,VALID,1000.67,VALID,0,VALID,91.6241,VALID,0,VALID,23.3677,VALID,27,VALID,0,
2011-06-03, 02:03:04,VALID,1000.71,VALID,0,VALID,91.708,VALID,0,VALID,23.389,VALID,27,VALID,0,
2011-06-03, 02:04:04,VALID,1000.72,VALID,0,VALID,91.7385,VALID,0,VALID,23.3695,VALID,27,VALID,0,
2011-06-03, 02:05:04,VALID,1000.74,VALID,0,VALID,91.8148,VALID,0,VALID,23.3695,VALID,27,VALID,0,
2011-06-03, 02:06:04,VALID,1000.71,VALID,0,VALID,91.8454,VALID,0,VALID,23.35,VALID,27,VALID,0,
2011-06-03, 02:07:04,VALID,1000.74,VALID,0,VALID,91.8683,VALID,0,VALID,23.35,VALID,27,VALID,0,
2011-06-03, 02:08:04,VALID,1000.72,VALID,0,VALID,91.8148,VALID,0,VALID,23.3305,VALID,27,VALID,0,
2011-06-03, 02:09:04,VALID,1000.72,VALID,0,VALID,91.7691,VALID,0,VALID,23.2702,VALID,27,VALID,0,
2011-06-03, 02:10:04,VALID,1000.69,VALID,0,VALID,91.7614,VALID,0,VALID,23.2312,VALID,27,VALID,0,
2011-06-03, 02:11:04,VALID,1000.72,VALID,0,VALID,91.7843,VALID,0,VALID,23.2524,VALID,27,VALID,0,
2011-06-03, 02:12:04,VALID,1000.72,VALID,0,VALID,91.8606,VALID,0,VALID,23.2329,VALID,27,VALID,0,
2011-06-03, 02:13:04,VALID,1000.73,VALID,0,VALID,91.9293,VALID,0,VALID,23.2329,VALID,27,VALID,0,
2011-06-03, 02:14:04,VALID,1000.73,VALID,0,VALID,91.9827,VALID,0,VALID,23.2329,VALID,27,VALID,0,
2011-06-03, 02:15:04,VALID,1000.69,VALID,0,VALID,92.1353,VALID,0,VALID,23.2719,VALID,27,VALID,0,
2011-06-03, 02:16:04,VALID,1000.7,VALID,0,VALID,92.1963,VALID,0,VALID,23.2915,VALID,357,VALID,0,
2011-06-03, 02:17:04,VALID,1000.68,VALID,0,VALID,92.2726,VALID,0,VALID,23.2719,VALID,357,VALID,0.986328,
2011-06-03, 02:18:04,VALID,1000.66,VALID,0,VALID,92.2955,VALID,0,VALID,23.2915,VALID,1,VALID,1.11016,
2011-06-03, 02:19:04,VALID,1000.68,VALID,0,VALID,92.3337,VALID,0,VALID,23.2915,VALID,5,VALID,0.772266,
2011-06-03, 02:20:04,VALID,1000.68,VALID,0,VALID,92.2955,VALID,0,VALID,23.2524,VALID,5,VALID,0.310937,
2011-06-03, 02:21:04,VALID,1000.66,VALID,0,VALID,92.2574,VALID,0,VALID,23.2524,VALID,5,VALID,0.413672,
2011-06-03, 02:22:04,VALID,1000.64,VALID,0,VALID,92.2497,VALID,0,VALID,23.2117,VALID,5,VALID,0.203906,
2011-06-03, 02:23:04,VALID,1000.63,VALID,0,VALID,92.2574,VALID,0,VALID,23.2134,VALID,7,VALID,0.555859,
2011-06-03, 02:24:04,VALID,1000.65,VALID,0,VALID,92.3108,VALID,0,VALID,23.1939,VALID,23,VALID,0.857031,
2011-06-03, 02:25:04,VALID,1000.63,VALID,0,VALID,92.2192,VALID,0,VALID,23.1744,VALID,37,VALID,1.37031,
2011-06-03, 02:26:04,VALID,1000.61,VALID,0,VALID,92.12,VALID,0,VALID,23.1336,VALID,42,VALID,1.28047,
2011-06-03, 02:27:04,VALID,1000.62,VALID,0,VALID,92.0514,VALID,0,VALID,23.1549,VALID,57,VALID,1.38672,
2011-06-03, 02:28:04,VALID,1000.6,VALID,0,VALID,92.0132,VALID,0,VALID,23.1744,VALID,60,VALID,1.23438,
2011-06-03, 02:29:04,VALID,1000.59,VALID,0,VALID,92.0132,VALID,0,VALID,23.1744,VALID,58,VALID,1.33984,
2011-06-03, 02:30:04,VALID,1000.59,VALID,0,VALID,92.0285,VALID,0,VALID,23.1549,VALID,67,VALID,1.30352,
2011-06-03, 02:31:04,VALID,1000.6,VALID,0,VALID,92.0514,VALID,0,VALID,23.1549,VALID,73,VALID,1.29062,
2011-06-03, 02:32:04,VALID,1000.61,VALID,0,VALID,92.1277,VALID,0,VALID,23.1744,VALID,69,VALID,1.32109,
2011-06-03, 02:33:04,VALID,1000.64,VALID,0,VALID,92.1734,VALID,0,VALID,23.1939,VALID,61,VALID,1.05273,
2011-06-03, 02:34:04,VALID,1000.62,VALID,0,VALID,92.2421,VALID,0,VALID,23.1939,VALID,57,VALID,1.18594,
2011-06-03, 02:35:04,VALID,1000.62,VALID,0,VALID,92.2879,VALID,0,VALID,23.2134,VALID,57,VALID,1.06953,
2011-06-03, 02:36:04,VALID,1000.63,VALID,0,VALID,92.2879,VALID,0,VALID,23.2134,VALID,58,VALID,0.946484,
2011-06-03, 02:37:04,VALID,1000.63,VALID,0,VALID,92.3489,VALID,0,VALID,23.2134,VALID,47,VALID,1.16953,
2011-06-03, 02:38:04,VALID,1000.6,VALID,0,VALID,92.3718,VALID,0,VALID,23.2329,VALID,41,VALID,0.975,
2011-06-03, 02:39:04,VALID,1000.57,VALID,0,VALID,92.3947,VALID,0,VALID,23.2347,VALID,37,VALID,1.1043,
2011-06-03, 02:40:04,VALID,1000.56,VALID,0,VALID,92.41,VALID,0,VALID,23.2524,VALID,54,VALID,1.49531,
2011-06-03, 02:41:04,VALID,1000.55,VALID,0,VALID,92.4176,VALID,0,VALID,23.2117,VALID,44,VALID,1.06094,
2011-06-03, 02:42:04,VALID,1000.54,VALID,0,VALID,92.4176,VALID,0,VALID,23.2329,VALID,41,VALID,0.565625,
2011-06-03, 02:43:04,VALID,1000.51,VALID,0,VALID,92.3871,VALID,0,VALID,23.2134,VALID,32,VALID,0.825,
2011-06-03, 02:44:04,VALID,1000.56,VALID,0,VALID,92.3718,VALID,0,VALID,23.1939,VALID,44,VALID,0.988281,
2011-06-03, 02:45:04,VALID,1000.55,VALID,0,VALID,92.3413,VALID,0,VALID,23.1744,VALID,50,VALID,0.382422,
2011-06-03, 02:46:04,VALID,1000.55,VALID,0,VALID,92.3184,VALID,0,VALID,23.1336,VALID,62,VALID,0.673828,
2011-06-03, 02:47:04,VALID,1000.52,VALID,0,VALID,92.326,VALID,0,VALID,23.1354,VALID,58,VALID,0.548437,
2011-06-03, 02:48:04,VALID,1000.5,VALID,0,VALID,92.3413,VALID,0,VALID,23.1159,VALID,36,VALID,0.81875,
2011-06-03, 02:49:04,VALID,1000.52,VALID,0,VALID,92.3489,VALID,0,VALID,23.1159,VALID,36,VALID,0.432813,
2011-06-03, 02:50:04,VALID,1000.48,VALID,0,VALID,92.3718,VALID,0,VALID,23.0946,VALID,348,VALID,0.792578,
2011-06-03, 02:51:04,VALID,1000.46,VALID,0,VALID,92.3947,VALID,0,VALID,23.1159,VALID,348,VALID,0.780469,
2011-06-03, 02:52:04,VALID,1000.47,VALID,0,VALID,92.4405,VALID,0,VALID,23.1159,VALID,340,VALID,1.14219,
2011-06-03, 02:53:04,VALID,1000.46,VALID,0,VALID,92.4405,VALID,0,VALID,23.1159,VALID,340,VALID,1.05742,
2011-06-03, 02:54:04,VALID,1000.46,VALID,0,VALID,92.4328,VALID,0,VALID,23.1159,VALID,323,VALID,0.867969,
2011-06-03, 02:55:04,VALID,1000.5,VALID,0,VALID,92.4481,VALID,0,VALID,23.1159,VALID,311,VALID,0.486719,
2011-06-03, 02:56:04,VALID,1000.5,VALID,0,VALID,92.4405,VALID,0,VALID,23.1159,VALID,311,VALID,0.00117188,
2011-06-03, 02:57:04,VALID,1000.5,VALID,0,VALID,92.4405,VALID,0,VALID,23.0964,VALID,8,VALID,0.7125,
2011-06-03, 02:58:04,VALID,1000.48,VALID,0,VALID,92.4176,VALID,0,VALID,23.0964,VALID,8,VALID,0.800391,
2011-06-03, 02:59:04,VALID,1000.51,VALID,0,VALID,92.3871,VALID,0,VALID,23.1159,VALID,8,VALID,0.788281,
2011-06-03, 03:00:04,VALID,1000.49,VALID,0,VALID,92.3337,VALID,0,VALID,23.1159,VALID,350,VALID,1.00703,
2011-06-03, 03:01:04,VALID,1000.46,VALID,0,VALID,92.265,VALID,0,VALID,23.1141,VALID,356,VALID,0.942969,
2011-06-03, 03:02:04,VALID,1000.47,VALID,0,VALID,92.1811,VALID,0,VALID,23.1354,VALID,330,VALID,0.723828,
2011-06-03, 03:03:04,VALID,1000.39,VALID,0,VALID,92.0743,VALID,0,VALID,23.1159,VALID,344,VALID,0.872266,
2011-06-03, 03:04:04,VALID,1000.39,VALID,0,VALID,91.9217,VALID,0,VALID,23.1354,VALID,356,VALID,0.802344,
2011-06-03, 03:05:04,VALID,1000.36,VALID,0,VALID,91.7843,VALID,0,VALID,23.1354,VALID,343,VALID,0.664844,
2011-06-03, 03:06:04,VALID,1000.35,VALID,0,VALID,91.6546,VALID,0,VALID,23.1159,VALID,343,VALID,0.475781,
2011-06-03, 03:07:04,VALID,1000.34,VALID,0,VALID,91.4944,VALID,0,VALID,23.0946,VALID,343,VALID,0.628906,
2011-06-03, 03:08:04,VALID,1000.35,VALID,0,VALID,91.3723,VALID,0,VALID,23.0751,VALID,343,VALID,0.546875,
2011-06-03, 03:09:04,VALID,1000.36,VALID,0,VALID,91.2655,VALID,0,VALID,23.0964,VALID,355,VALID,0.925,
2011-06-03, 03:10:04,VALID,1000.36,VALID,0,VALID,91.1511,VALID,0,VALID,23.0769,VALID,25,VALID,1.03594,
2011-06-03, 03:11:04,VALID,1000.35,VALID,0,VALID,90.9527,VALID,0,VALID,23.0573,VALID,31,VALID,1.275,
2011-06-03, 03:12:04,VALID,1000.35,VALID,0,VALID,90.8306,VALID,0,VALID,23.0573,VALID,31,VALID,1.15508,
2011-06-03, 03:13:04,VALID,1000.33,VALID,0,VALID,90.7696,VALID,0,VALID,23.0573,VALID,31,VALID,1.28281,
2011-06-03, 03:14:04,VALID,1000.32,VALID,0,VALID,90.7543,VALID,0,VALID,23.0378,VALID,31,VALID,0.919531,
2011-06-03, 03:15:04,VALID,1000.29,VALID,0,VALID,90.7162,VALID,0,VALID,23.0183,VALID,31,VALID,0.705859,
2011-06-03, 03:16:04,VALID,1000.27,VALID,0,VALID,90.7314,VALID,0,VALID,23.0378,VALID,31,VALID,0.601953,
2011-06-03, 03:17:04,VALID,1000.28,VALID,0,VALID,90.7314,VALID,0,VALID,23.0166,VALID,31,VALID,0.7875,
2011-06-03, 03:18:04,VALID,1000.26,VALID,0,VALID,90.8459,VALID,0,VALID,23.0378,VALID,31,VALID,0.895312,
2011-06-03, 03:19:04,VALID,1000.21,VALID,0,VALID,90.8459,VALID,0,VALID,23.0378,VALID,18,VALID,0.632031,
2011-06-03, 03:20:04,VALID,1000.17,VALID,0,VALID,90.823,VALID,0,VALID,23.0183,VALID,18,VALID,0.541016,
2011-06-03, 03:21:04,VALID,1000.15,VALID,0,VALID,90.8306,VALID,0,VALID,22.9988,VALID,18,VALID,0.633984,
2011-06-03, 03:22:04,VALID,1000.12,VALID,0,VALID,90.8459,VALID,0,VALID,22.9988,VALID,18,VALID,0.53125,
2011-06-03, 03:23:04,VALID,1000.1,VALID,0,VALID,90.8383,VALID,0,VALID,22.9988,VALID,18,VALID,0.438281,
2011-06-03, 03:24:04,VALID,1000.09,VALID,0,VALID,90.9069,VALID,0,VALID,22.9776,VALID,18,VALID,0.369531,
2011-06-03, 03:25:04,VALID,1000.04,VALID,0,VALID,90.9298,VALID,0,VALID,22.9598,VALID,18,VALID,0.533984,
2011-06-03, 03:26:04,VALID,1000.04,VALID,0,VALID,91.0214,VALID,0,VALID,22.9598,VALID,18,VALID,0.698438,
2011-06-03, 03:27:04,VALID,1000.04,VALID,0,VALID,91.1511,VALID,0,VALID,22.9403,VALID,18,VALID,0.846875,
2011-06-03, 03:28:04,VALID,1000.06,VALID,0,VALID,91.1663,VALID,0,VALID,22.9208,VALID,18,VALID,0.409375,
2011-06-03, 03:29:04,VALID,1000.05,VALID,0,VALID,91.235,VALID,0,VALID,22.9208,VALID,18,VALID,0.415625,
2011-06-03, 03:30:04,VALID,1000,VALID,0,VALID,91.4181,VALID,0,VALID,22.9208,VALID,18,VALID,0.745313,
2011-06-03, 03:31:04,VALID,1000.04,VALID,0,VALID,91.5631,VALID,0,VALID,22.9208,VALID,18,VALID,0.754687,
2011-06-03, 03:32:04,VALID,1000.03,VALID,0,VALID,91.6394,VALID,0,VALID,22.9208,VALID,25,VALID,0.824219,
2011-06-03, 03:33:04,VALID,1000.03,VALID,0,VALID,91.6165,VALID,0,VALID,22.8818,VALID,25,VALID,0.897656,
2011-06-03, 03:34:04,VALID,1000.02,VALID,0,VALID,91.586,VALID,0,VALID,22.8623,VALID,25,VALID,0.841016,
2011-06-03, 03:35:04,VALID,1000.02,VALID,0,VALID,91.5936,VALID,0,VALID,22.8427,VALID,25,VALID,0.692969,
2011-06-03, 03:36:04,VALID,1000.02,VALID,0,VALID,91.6394,VALID,0,VALID,22.8232,VALID,25,VALID,0.869922,
2011-06-03, 03:37:04,VALID,1000.03,VALID,0,VALID,91.7004,VALID,0,VALID,22.8232,VALID,25,VALID,0.834375,
2011-06-03, 03:38:04,VALID,1000.05,VALID,0,VALID,91.7462,VALID,0,VALID,22.8215,VALID,25,VALID,0.685547,
2011-06-03, 03:39:04,VALID,1000.07,VALID,0,VALID,91.7843,VALID,0,VALID,22.8427,VALID,25,VALID,0.548047,
2011-06-03, 03:40:04,VALID,1000.11,VALID,0,VALID,91.7767,VALID,0,VALID,22.8623,VALID,25,VALID,0.618359,
2011-06-03, 03:41:04,VALID,1000.11,VALID,0,VALID,91.7843,VALID,0,VALID,22.8818,VALID,25,VALID,0.594141,
2011-06-03, 03:42:04,VALID,1000.1,VALID,0,VALID,91.7538,VALID,0,VALID,22.9403,VALID,25,VALID,0.350781,
2011-06-03, 03:43:04,VALID,1000.15,VALID,0,VALID,91.7004,VALID,0.112286,VALID,22.9403,VALID,25,VALID,0,
2011-06-03, 03:44:04,VALID,1000.15,VALID,0,VALID,91.6394,VALID,0,VALID,22.9598,VALID,63,VALID,0.471875,
2011-06-03, 03:45:04,VALID,1000.16,VALID,0,VALID,91.5783,VALID,0,VALID,23.0183,VALID,84,VALID,0,
2011-06-03, 03:46:04,VALID,1000.18,VALID,0,VALID,91.3342,VALID,0,VALID,23.0573,VALID,84,VALID,0,
2011-06-03, 03:47:04,VALID,1000.17,VALID,0,VALID,91.1053,VALID,0,VALID,23.0769,VALID,96,VALID,0,
2011-06-03, 03:48:04,VALID,1000.17,VALID,0,VALID,90.9374,VALID,0,VALID,23.0946,VALID,112,VALID,0,